Погода в Вяртсиле

Россия / Республика Карелия     62°10′30″N   30°41′32″E
темп.,
°C
ветер,
м/с
пор.,
м/с
влажн.,
%
обл.,
%
осадки,
мм/ч
давл.,
гПа
погр.,
м
7 мая, пт
пт700:00−1сз4897100 2.1 990564
03:00−2з4996100 2.7 992519
06:00−1зюз4895100 0.4 994647
09:00+1зюз4784100 0.6 996904
12:00+1зюз3686100 0.1 999934
15:00+2зюз3586100 0.1 10011019
18:00+3ююз348448 0.0 1002722
21:00+1ююв269621 0.1 1004143
8 мая, сб
сб800:00+1ююв399699 0.0 1004213
03:000ююв279896 0.0 1004172
06:00+2ююв2799100 0.2 1004525
09:00+4ю0192100 0.2 1004440
12:00+5с2286100 0.1 1003660
15:00+5с3588100 0.3 1004678
18:00+3ссз3792100 0.1 1004599
21:00+2сз3993100 0.1 1005498
9 мая, вс
вс900:000сз2895100 0.0 1006193
03:000ссз4129685 0.3 1006438
06:000з12925 0.0 100953
09:00+5з36739 0.0 1010488
12:00+7з46555 0.0 10121568
15:00+9зюз5646100 0.1 10122071
18:00+8юз466024 0.0 10131319
21:00+5ююз3985100 0.0 1014341
10 мая, пн
пн1000:00+4ююз31188100 0.1 1014455
03:00+3ююз398698 0.1 1016298
06:00+4ю398695 0.0 1016421
09:00+4ююв4995100 0.7 1016730
12:00+5ю3998100 0.7 1016371
15:00+8ююз41398100 1.8 1016639
18:00+12юз41390100 0.9 1017644
21:00+12юз5157863 0.8 1015748
11 мая, вт
вт1100:00+11ююз5178370 0.0 1017685
03:00+9ююз41590100 0.0 1018538
06:00+9ююз4149339 0.0 1018500
09:00+13ююз5138317 0.0 1019661
12:00+16ююз61166100 0.0 10181009
15:00+18юз51062100 0.0 10191122
18:00+17юз41067100 0.0 1020955
21:00+14ююз31079100 0.0 1021360